Location: Unspecified
(0.0000°N, 0.0000°E)
Time: 16:13:39
(UTC+02:00)

Vanguard 1 Rocket - All Passes

Search period start: 22 April 2018 00:00
Search period end: 02 May 2018 00:00
Orbit: 654 x 4223 km, 34.3° (Epoch: 21 April)

Date Brightness Start Highest point End Pass type
(mag) Time Alt. Az. Time Alt. Az. Time Alt. Az.
22 Apr - 01:20:09 10° SSW 01:34:51 24° SSE 01:53:34 10° ESE visible
22 Apr - 03:47:17 10° SW 04:11:10 57° SE 04:34:13 10° ENE visible
22 Apr - 06:18:38 10° WSW 06:45:02 70° NW 07:03:26 10° NE visible
22 Apr - 09:00:06 10° W 09:16:23 25° NW 09:27:18 10° NNE daylight
22 Apr - 16:43:30 10° NNW 16:47:28 32° NE 16:51:52 10° E daylight
22 Apr - 19:08:31 10° W 19:12:47 26° SSW 19:18:56 10° SSE daylight
22 Apr - 21:42:02 10° S 21:42:43 10° S 21:43:26 10° S visible
23 Apr - 00:09:00 10° SSW 00:18:20 16° SSE 00:30:25 10° SE visible
23 Apr - 02:34:47 10° SSW 02:55:02 41° SE 03:18:14 10° E visible
23 Apr - 05:03:34 10° SW 05:29:50 88° SE 05:51:18 10° NE visible
23 Apr - 07:39:40 10° WSW 08:02:18 40° NW 08:17:17 10° NNE visible
23 Apr - 10:33:49 10° NNW 10:34:24 10° NNW 10:34:57 10° NNW daylight
23 Apr - 15:34:30 10° N 15:36:28 12° NNE 15:38:21 10° NE daylight
23 Apr - 17:57:08 10° WNW 18:01:27 51° SSW 18:07:19 10° SE daylight
23 Apr - 20:26:57 10° SSW 20:29:10 11° SSW 20:31:43 10° S visible
23 Apr - 22:59:30 10° S 23:02:23 11° SSE 23:05:35 10° SSE visible
24 Apr - 01:23:07 10° SSW 01:38:54 29° SSE 01:59:20 10° E visible
24 Apr - 03:49:57 10° SW 04:14:04 67° SE 04:37:49 10° ENE visible
24 Apr - 06:22:00 10° WSW 06:47:43 59° NW 07:06:17 10° NE visible
24 Apr - 09:06:02 10° WNW 09:19:59 20° NNW 09:29:52 10° N daylight
24 Apr - 16:46:23 10° NW 16:50:46 59° NE 16:55:37 10° ESE daylight
24 Apr - 19:13:20 10° WSW 19:16:37 16° SSW 19:20:49 10° SSE daylight
25 Apr - 00:12:19 10° SSW 00:22:53 19° SSE 00:36:58 10° ESE visible
25 Apr - 02:37:28 10° SW 02:58:13 49° SE 03:22:29 10° ENE visible
25 Apr - 05:06:32 10° SW 05:32:29 80° NW 05:54:18 10° NE visible
25 Apr - 07:44:19 10° W 08:05:26 33° NW 08:19:58 10° NNE daylight
25 Apr - 15:36:11 10° NNW 15:39:59 22° NNE 15:43:29 10° E daylight
25 Apr - 18:01:04 10° W 18:04:58 29° SSW 18:09:58 10° SSE daylight
25 Apr - 23:03:27 10° S 23:07:12 11° SSE 23:11:28 10° SSE visible
26 Apr - 01:25:55 10° SSW 01:42:32 34° SE 02:04:34 10° E visible
26 Apr - 03:52:43 10° SW 04:16:48 78° SE 04:41:07 10° ENE visible
26 Apr - 06:25:44 10° WSW 06:50:31 50° NW 07:09:02 10° NNE visible
26 Apr - 09:12:35 10° WNW 09:23:57 17° NNW 09:32:29 10° N daylight
26 Apr - 14:27:15 10° N 14:28:27 11° NNE 14:29:35 10° NE daylight
26 Apr - 16:49:38 10° WNW 16:54:06 73° SW 16:58:57 10° SE daylight
27 Apr - 00:15:15 10° SSW 00:27:04 22° SSE 00:43:21 10° ESE visible
27 Apr - 02:40:10 10° SW 03:01:08 58° SE 03:26:18 10° ENE visible
27 Apr - 05:09:43 10° WSW 05:35:09 69° NW 05:57:10 10° NE visible
27 Apr - 07:49:33 10° W 08:08:52 28° NNW 08:22:41 10° NNE daylight
27 Apr - 15:38:42 10° NW 15:43:27 40° NE 15:47:36 10° ESE daylight
27 Apr - 18:05:38 10° WSW 18:08:36 17° SSW 18:12:04 10° SSE daylight
27 Apr - 23:06:14 10° S 23:11:48 13° SSE 23:18:38 10° SE visible
28 Apr - 01:28:38 10° SSW 01:45:47 41° SE 02:09:14 10° E visible
28 Apr - 03:55:38 10° SW 04:19:27 90° NW 04:44:11 10° NE visible
28 Apr - 06:29:54 10° W 06:53:32 41° NW 07:11:45 10° NNE visible
28 Apr - 09:19:29 10° NW 09:28:19 14° NNW 09:35:17 10° N daylight
28 Apr - 14:28:05 10° NNW 14:32:14 19° NNE 14:35:34 10° ENE daylight
28 Apr - 16:53:16 10° WNW 16:57:28 38° SW 17:01:54 10° SE daylight
29 Apr - 00:18:00 10° SSW 00:30:50 27° SE 00:49:14 10° E visible
29 Apr - 02:42:57 10° SW 03:03:52 69° SE 03:29:46 10° ENE visible
29 Apr - 05:13:13 10° WSW 05:37:54 58° NW 05:59:55 10° NE visible
29 Apr - 07:55:21 10° WNW 08:12:41 23° NNW 08:25:29 10° NNE daylight
29 Apr - 13:17:56 10° N 13:20:10 11° NNE 13:22:08 10° NE daylight
29 Apr - 15:41:38 10° NW 15:46:51 76° NE 15:51:14 10° ESE daylight
29 Apr - 23:08:43 10° S 23:16:06 15° SSE 23:25:49 10° ESE visible
30 Apr - 01:31:21 10° SSW 01:48:46 49° SE 02:13:24 10° ENE visible
30 Apr - 03:58:44 10° WSW 04:22:07 78° NW 04:47:03 10° NE visible
30 Apr - 06:34:33 10° W 06:56:51 35° NNW 07:14:28 10° NNE visible
30 Apr - 09:26:10 10° NW 09:32:59 12° NNW 09:38:36 10° N daylight
30 Apr - 14:30:17 10° NNW 14:35:54 31° NNE 14:40:01 10° E daylight
30 Apr - 16:57:26 10° W 17:00:53 21° SSW 17:04:25 10° SSE daylight
01 May - 00:20:41 10° SSW 00:34:13 32° SE 00:54:29 10° E visible
01 May - 02:45:50 10° SW 03:06:31 80° SE 03:32:55 10° NE visible
01 May - 05:17:03 10° WSW 05:40:52 49° NW 06:02:34 10° NE visible
01 May - 08:01:37 10° WNW 08:16:55 20° NNW 08:28:30 10° NNE daylight
01 May - 13:18:53 10° NNW 13:24:10 18° NNE 13:28:02 10° ENE daylight
01 May - 15:44:58 10° WNW 15:50:10 57° SW 15:54:29 10° SE daylight
01 May - 23:11:09 10° S 23:20:02 19° SE 23:32:31 10° ESE visible
